Retour au catalogue

THORAD AGENA D DEB

ActifSSO
NORAD 4914·DEBRIS·🇺🇸 United States

Lancé Apr 8, 1970 depuis Vandenberg Space Force Base

Loading…

Prochains Passages

TLE

Source: Space-Track
1 04914U 70025FL  26229.82013741  .00002898  00000-0  32273-2 0  9995
2 04914  99.4416 174.7944 0081874  50.4276 339.5620 13.70779715783228

Suivez THORAD AGENA D DEB en temps réel avec AllMySat

Download on the App Store